TimeEST,TemperatureF,Dew PointF,Humidity,Sea Level PressureIn,VisibilityMPH,Wind Direction,Wind SpeedMPH,Gust SpeedMPH,PrecipitationIn,Events,Conditions,WindDirDegrees,DateUTC
12:09 AM,32.0,32.0,100,29.84,2.0,NE,3.5,-,N/A,,Overcast,40,2014-01-06 05:09:00
12:10 AM,32.0,32.0,100,29.84,2.5,NNE,3.5,-,N/A,,Overcast,30,2014-01-06 05:10:00
12:15 AM,32.0,32.0,100,29.84,2.0,NNE,2.3,-,N/A,,Overcast,20,2014-01-06 05:15:00
12:16 AM,32.0,32.0,100,29.83,2.0,NNE,3.5,-,N/A,,Light Drizzle,30,2014-01-06 05:16:00
12:30 AM,32.0,32.0,100,29.82,2.0,North,3.5,-,N/A,,Overcast,360,2014-01-06 05:30:00
12:31 AM,32.0,32.0,100,29.82,2.5,North,3.5,-,N/A,,Overcast,350,2014-01-06 05:31:00
12:49 AM,32.0,32.0,100,29.81,2.0,ENE,3.5,-,N/A,,Overcast,60,2014-01-06 05:49:00
12:58 AM,32.4,32.0,99,29.82,2.0,NE,2.3,-,0.00,,Overcast,40,2014-01-06 05:58:00
1:22 AM,32.0,32.0,100,29.78,2.5,NNW,2.3,-,N/A,,Overcast,330,2014-01-06 06:22:00
1:27 AM,32.0,32.0,100,29.77,3.0,NNW,1.2,-,N/A,,Overcast,330,2014-01-06 06:27:00
1:34 AM,32.0,32.0,100,29.76,2.5,NE,3.5,-,N/A,,Overcast,40,2014-01-06 06:34:00
1:42 AM,32.0,32.0,100,29.75,2.0,NE,2.3,-,N/A,,Overcast,40,2014-01-06 06:42:00
1:45 AM,32.0,32.0,100,29.74,2.0,NNE,2.3,-,N/A,,Overcast,20,2014-01-06 06:45:00
1:47 AM,32.0,32.0,100,29.74,1.8,North,2.3,-,N/A,,Overcast,10,2014-01-06 06:47:00
1:51 AM,32.0,32.0,100,29.73,1.5,North,2.3,-,N/A,Rain,Light Rain,10,2014-01-06 06:51:00
1:52 AM,32.0,32.0,100,29.73,1.5,North,2.3,-,N/A,Rain,Light Rain,360,2014-01-06 06:52:00
1:56 AM,32.0,32.0,100,29.73,1.5,North,1.2,-,N/A,Rain,Light Rain,360,2014-01-06 06:56:00
1:58 AM,32.0,32.0,100,29.76,1.2,Calm,Calm,-,0.00,Rain,Light Rain,0,2014-01-06 06:58:00
2:06 AM,32.0,32.0,100,29.72,1.5,WNW,4.6,-,N/A,,Light Drizzle,300,2014-01-06 07:06:00
2:07 AM,32.0,32.0,100,29.72,1.5,WNW,4.6,-,N/A,,Light Drizzle,300,2014-01-06 07:07:00
2:11 AM,32.0,32.0,100,29.72,1.5,WNW,6.9,-,N/A,Rain,Light Rain,300,2014-01-06 07:11:00
2:13 AM,32.0,32.0,100,29.72,1.8,WNW,6.9,-,N/A,Rain,Light Rain,300,2014-01-06 07:13:00
2:17 AM,32.0,32.0,100,29.71,2.0,NNW,5.8,-,N/A,Rain,Light Rain,330,2014-01-06 07:17:00
2:20 AM,32.0,32.0,100,29.71,2.5,NNW,3.5,-,N/A,Rain,Light Rain,330,2014-01-06 07:20:00
2:23 AM,32.0,32.0,100,29.70,3.0,Variable,2.3,-,N/A,Rain,Light Rain,0,2014-01-06 07:23:00
2:26 AM,32.0,32.0,100,29.70,2.5,NE,3.5,-,N/A,Rain,Light Rain,50,2014-01-06 07:26:00
2:31 AM,32.0,32.0,100,29.69,2.0,NE,3.5,-,N/A,Rain,Light Rain,50,2014-01-06 07:31:00
2:58 AM,32.9,32.7,99,29.69,2.0,NNE,2.3,-,0.03,Rain,Light Rain,30,2014-01-06 07:58:00
2:59 AM,32.0,32.0,100,29.66,1.8,NNE,2.3,-,N/A,Rain,Light Rain,20,2014-01-06 07:59:00
3:01 AM,32.0,32.0,100,29.67,1.5,Calm,Calm,-,N/A,Rain,Light Rain,0,2014-01-06 08:01:00
3:03 AM,32.0,32.0,100,29.66,1.5,Calm,Calm,-,N/A,Rain,Light Rain,0,2014-01-06 08:03:00
3:09 AM,32.0,32.0,100,29.67,1.5,WNW,4.6,-,N/A,Rain,Light Rain,300,2014-01-06 08:09:00
3:11 AM,32.0,32.0,100,29.66,1.8,WNW,3.5,-,N/A,Rain,Light Rain,300,2014-01-06 08:11:00
3:19 AM,32.0,32.0,100,29.65,1.5,NE,3.5,-,N/A,Rain,Light Rain,40,2014-01-06 08:19:00
3:20 AM,32.0,32.0,100,29.64,1.5,NE,3.5,-,N/A,Rain,Light Rain,40,2014-01-06 08:20:00
3:22 AM,32.0,32.0,100,29.65,1.2,NE,2.3,-,N/A,Rain,Light Rain,50,2014-01-06 08:22:00
3:25 AM,32.0,32.0,100,29.65,1.2,NE,2.3,-,N/A,Rain,Light Rain,40,2014-01-06 08:25:00
3:29 AM,32.0,32.0,100,29.64,1.2,ENE,3.5,-,N/A,Rain,Light Rain,60,2014-01-06 08:29:00
3:30 AM,33.8,32.0,93,29.63,1.2,ENE,3.5,-,N/A,Rain,Rain,60,2014-01-06 08:30:00
3:32 AM,33.8,32.0,93,29.63,1.0,ENE,3.5,-,N/A,Rain,Rain,60,2014-01-06 08:32:00
3:34 AM,32.0,32.0,100,29.63,1.0,NE,4.6,-,N/A,Rain,Rain,50,2014-01-06 08:34:00
3:40 AM,33.8,33.8,100,29.61,1.0,ENE,4.6,-,N/A,Rain,Light Rain,60,2014-01-06 08:40:00
3:42 AM,33.8,33.8,100,29.61,1.2,ENE,4.6,-,N/A,Rain,Light Rain,60,2014-01-06 08:42:00
3:43 AM,33.8,33.8,100,29.61,1.2,ENE,4.6,-,N/A,Rain,Light Rain,70,2014-01-06 08:43:00
3:44 AM,33.8,33.8,100,29.61,1.5,ENE,3.5,-,N/A,Rain,Light Rain,60,2014-01-06 08:44:00
3:45 AM,33.8,33.8,100,29.61,1.5,NE,3.5,-,N/A,Rain,Light Rain,50,2014-01-06 08:45:00
3:49 AM,33.8,33.8,100,29.61,1.5,Variable,3.5,-,N/A,Rain,Light Rain,0,2014-01-06 08:49:00
3:50 AM,35.6,33.8,93,29.62,1.8,Variable,5.8,-,N/A,Rain,Light Rain,0,2014-01-06 08:50:00
3:58 AM,34.2,33.8,99,29.64,1.8,WNW,5.8,-,0.23,Rain,Rain,300,2014-01-06 08:58:00
3:59 AM,33.8,33.8,100,29.61,1.5,WNW,5.8,-,N/A,Rain,Rain,300,2014-01-06 08:59:00
4:02 AM,33.8,33.8,100,29.61,1.8,WNW,5.8,-,N/A,Rain,Light Rain,290,2014-01-06 09:02:00
4:06 AM,33.8,33.8,100,29.62,2.0,NW,5.8,-,N/A,Rain,Light Rain,310,2014-01-06 09:06:00
4:14 AM,35.6,33.8,93,29.61,1.8,NNW,2.3,-,N/A,Rain,Light Rain,340,2014-01-06 09:14:00
4:20 AM,35.6,33.8,93,29.61,1.5,Calm,Calm,-,N/A,Rain,Light Rain,0,2014-01-06 09:20:00
4:26 AM,33.8,33.8,100,29.61,1.5,ENE,2.3,-,N/A,,Light Drizzle,70,2014-01-06 09:26:00
4:28 AM,33.8,33.8,100,29.60,1.2,East,2.3,-,N/A,,Light Drizzle,90,2014-01-06 09:28:00
4:34 AM,33.8,33.8,100,29.60,1.2,NE,2.3,-,N/A,,Overcast,50,2014-01-06 09:34:00
4:35 AM,33.8,33.8,100,29.60,1.5,NE,2.3,-,N/A,,Overcast,50,2014-01-06 09:35:00
4:38 AM,33.8,33.8,100,29.60,1.5,NE,2.3,-,N/A,,Overcast,50,2014-01-06 09:38:00
4:39 AM,33.8,33.8,100,29.60,1.5,NE,2.3,-,N/A,,Overcast,50,2014-01-06 09:39:00
4:40 AM,33.8,33.8,100,29.60,1.8,NE,2.3,-,N/A,,Overcast,50,2014-01-06 09:40:00
4:42 AM,33.8,33.8,100,29.60,1.5,NE,3.5,-,N/A,,Overcast,50,2014-01-06 09:42:00
4:43 AM,33.8,33.8,100,29.60,1.5,NE,3.5,-,N/A,,Overcast,50,2014-01-06 09:43:00
4:47 AM,33.8,33.8,100,29.59,1.2,ENE,4.6,-,N/A,,Overcast,70,2014-01-06 09:47:00
4:54 AM,35.6,33.8,93,29.58,1.5,ENE,4.6,-,N/A,,Overcast,60,2014-01-06 09:54:00
4:56 AM,35.6,35.6,100,29.58,1.5,ENE,4.6,-,N/A,,Overcast,60,2014-01-06 09:56:00
4:57 AM,35.6,35.6,100,29.58,1.8,ENE,4.6,-,N/A,,Overcast,60,2014-01-06 09:57:00
4:58 AM,35.6,35.6,100,29.61,1.8,ENE,4.6,-,0.03,,Overcast,60,2014-01-06 09:58:00
5:00 AM,35.6,35.6,100,29.58,2.0,NE,4.6,-,N/A,,Overcast,50,2014-01-06 10:00:00
5:09 AM,33.8,33.8,100,29.57,1.8,ENE,6.9,-,N/A,,Overcast,60,2014-01-06 10:09:00
5:12 AM,33.8,33.8,100,29.56,1.5,East,6.9,-,N/A,,Overcast,80,2014-01-06 10:12:00
5:14 AM,35.6,33.8,93,29.55,1.5,East,8.1,-,N/A,,Overcast,80,2014-01-06 10:14:00
5:16 AM,35.6,35.6,100,29.55,1.2,East,8.1,-,N/A,,Overcast,80,2014-01-06 10:16:00
5:19 AM,37.4,37.4,100,29.55,1.2,East,5.8,-,N/A,,Overcast,90,2014-01-06 10:19:00
5:21 AM,37.4,37.4,100,29.55,1.2,ENE,4.6,-,N/A,,Overcast,70,2014-01-06 10:21:00
5:23 AM,39.2,39.2,100,29.55,1.2,Variable,4.6,-,N/A,,Overcast,0,2014-01-06 10:23:00
5:24 AM,39.2,39.2,100,29.55,1.0,Variable,3.5,-,N/A,,Overcast,0,2014-01-06 10:24:00
5:25 AM,39.2,39.2,100,29.55,1.0,Variable,2.3,-,N/A,,Overcast,0,2014-01-06 10:25:00
5:28 AM,39.2,39.2,100,29.54,0.8,Variable,1.2,-,N/A,,Overcast,0,2014-01-06 10:28:00
5:29 AM,39.2,37.4,93,29.54,0.8,Variable,2.3,-,N/A,,Overcast,0,2014-01-06 10:29:00
5:40 AM,35.6,35.6,100,29.53,1.0,East,1.2,-,N/A,,Overcast,90,2014-01-06 10:40:00
5:44 AM,35.6,35.6,100,29.54,0.8,Calm,Calm,-,N/A,,Overcast,0,2014-01-06 10:44:00
5:47 AM,35.6,35.6,100,29.53,0.8,Calm,Calm,-,N/A,,Overcast,0,2014-01-06 10:47:00
5:58 AM,35.6,35.6,100,29.56,0.8,NW,3.5,-,0.01,,Mist,310,2014-01-06 10:58:00
6:04 AM,35.6,35.6,100,29.52,1.0,NW,3.5,-,N/A,,Light Drizzle,320,2014-01-06 11:04:00
6:06 AM,35.6,35.6,100,29.52,0.8,North,2.3,-,N/A,,Light Drizzle,350,2014-01-06 11:06:00
6:14 AM,35.6,33.8,93,29.52,0.8,NNE,2.3,-,N/A,,Mist,30,2014-01-06 11:14:00
6:38 AM,35.6,33.8,93,29.50,0.8,NE,3.5,-,N/A,,Light Drizzle,40,2014-01-06 11:38:00
6:50 AM,35.6,35.6,100,29.49,0.8,ENE,3.5,-,N/A,,Mist,70,2014-01-06 11:50:00
6:56 AM,35.6,35.6,100,29.48,0.5,Calm,Calm,-,N/A,Fog,Fog,0,2014-01-06 11:56:00
6:58 AM,35.6,35.4,99,29.51,0.5,NE,1.2,-,0.01,Fog,Fog,40,2014-01-06 11:58:00
6:59 AM,35.6,35.6,100,29.48,0.5,NNE,1.2,-,N/A,Fog-Rain,Light Rain,30,2014-01-06 11:59:00
7:11 AM,33.8,33.8,100,29.46,0.5,NE,2.3,-,N/A,Fog,Fog,40,2014-01-06 12:11:00
7:14 AM,33.8,33.8,100,29.46,0.2,NE,2.3,-,N/A,Fog,Fog,40,2014-01-06 12:14:00
7:16 AM,33.8,33.8,100,29.46,0.2,NNE,2.3,-,N/A,Fog,Light Drizzle,20,2014-01-06 12:16:00
7:19 AM,33.8,33.8,100,29.46,0.2,NNE,2.3,-,N/A,Fog,Light Drizzle,20,2014-01-06 12:19:00
7:20 AM,33.8,33.8,100,29.46,0.2,NNE,2.3,-,N/A,Fog,Light Drizzle,20,2014-01-06 12:20:00
7:25 AM,33.8,33.8,100,29.45,0.2,Calm,Calm,-,N/A,Fog-Rain,Light Rain,0,2014-01-06 12:25:00
7:30 AM,33.8,33.8,100,29.45,0.2,Calm,Calm,-,N/A,Fog-Rain,Light Rain,0,2014-01-06 12:30:00
7:33 AM,33.8,33.8,100,29.45,0.2,Calm,Calm,-,N/A,Fog-Rain,Light Rain,0,2014-01-06 12:33:00
7:42 AM,33.8,33.8,100,29.44,0.2,NW,2.3,-,N/A,Fog-Rain,Light Rain,310,2014-01-06 12:42:00
7:56 AM,35.6,35.6,100,29.43,0.5,Calm,Calm,-,N/A,Fog-Rain,Light Rain,0,2014-01-06 12:56:00
7:58 AM,35.1,34.7,99,29.46,0.5,North,-9999.0,-,0.07,Fog-Rain,Light Rain,0,2014-01-06 12:58:00
7:59 AM,35.6,35.6,100,29.43,0.5,North,-9999.0,-,N/A,Fog,Fog,0,2014-01-06 12:59:00
8:00 AM,35.6,35.6,100,29.43,0.5,NW,1.2,-,N/A,Fog,Fog,310,2014-01-06 13:00:00
8:04 AM,35.6,35.6,100,29.42,0.5,South,2.3,-,N/A,Fog,Fog,190,2014-01-06 13:04:00
8:05 AM,35.6,35.6,100,29.42,0.2,South,2.3,-,N/A,Fog,Fog,190,2014-01-06 13:05:00
8:08 AM,35.6,35.6,100,29.41,0.2,Variable,5.8,-,N/A,Fog,Fog,0,2014-01-06 13:08:00
8:09 AM,35.6,35.6,100,29.41,0.2,South,6.9,-,N/A,Fog,Fog,180,2014-01-06 13:09:00
8:10 AM,35.6,35.6,100,29.41,0.2,South,6.9,-,N/A,Fog,Fog,180,2014-01-06 13:10:00
8:12 AM,37.4,35.6,93,29.41,0.2,South,8.1,-,N/A,Fog,Fog,170,2014-01-06 13:12:00
8:13 AM,37.4,37.4,100,29.40,0.2,South,9.2,-,N/A,Fog,Fog,170,2014-01-06 13:13:00
8:14 AM,37.4,37.4,100,29.40,0.2,South,10.4,-,N/A,Fog,Fog,170,2014-01-06 13:14:00
8:15 AM,41.0,39.2,93,29.39,0.2,South,11.5,-,N/A,Fog,Light Drizzle,170,2014-01-06 13:15:00
8:17 AM,42.8,42.8,100,29.39,0.2,South,11.5,-,N/A,Fog,Light Drizzle,180,2014-01-06 13:17:00
8:18 AM,44.6,44.6,100,29.39,0.2,South,11.5,-,N/A,Fog,Light Drizzle,180,2014-01-06 13:18:00
8:22 AM,48.2,48.2,100,29.39,0.2,South,13.8,18.4,N/A,Fog,Light Drizzle,180,2014-01-06 13:22:00
8:26 AM,50.0,50.0,100,29.39,0.2,South,17.3,-,N/A,Fog,Light Drizzle,180,2014-01-06 13:26:00
8:27 AM,51.8,51.8,100,29.39,0.2,South,18.4,26.5,N/A,Fog,Light Drizzle,170,2014-01-06 13:27:00
8:28 AM,51.8,51.8,100,29.39,0.2,South,21.9,32.2,N/A,Fog,Light Drizzle,180,2014-01-06 13:28:00
8:29 AM,51.8,51.8,100,29.39,0.2,South,21.9,32.2,N/A,Fog,Fog,180,2014-01-06 13:29:00
8:30 AM,51.8,51.8,100,29.39,0.2,South,19.6,32.2,N/A,Fog,Light Drizzle,180,2014-01-06 13:30:00
8:31 AM,53.6,53.6,100,29.39,0.5,South,18.4,32.2,N/A,Fog-Rain,Light Rain,180,2014-01-06 13:31:00
8:32 AM,53.6,53.6,100,29.39,0.5,South,18.4,32.2,N/A,Fog-Rain,Light Rain,180,2014-01-06 13:32:00
8:33 AM,53.6,53.6,100,29.39,0.8,South,18.4,32.2,N/A,Rain,Light Rain,170,2014-01-06 13:33:00
8:34 AM,53.6,53.6,100,29.38,0.8,South,18.4,32.2,N/A,Rain,Light Rain,170,2014-01-06 13:34:00
8:36 AM,53.6,53.6,100,29.38,1.0,South,17.3,32.2,N/A,Rain,Rain,180,2014-01-06 13:36:00
8:37 AM,53.6,53.6,100,29.39,0.8,South,17.3,32.2,N/A,Rain,Rain,180,2014-01-06 13:37:00
8:38 AM,53.6,53.6,100,29.38,0.8,South,18.4,32.2,N/A,Rain,Rain,180,2014-01-06 13:38:00
8:40 AM,53.6,53.6,100,29.38,0.8,South,18.4,26.5,N/A,Rain,Light Rain,180,2014-01-06 13:40:00
8:41 AM,53.6,53.6,100,29.38,0.8,South,18.4,26.5,N/A,Rain,Light Rain,180,2014-01-06 13:41:00
8:42 AM,53.6,53.6,100,29.38,0.8,South,18.4,26.5,N/A,Rain,Light Rain,180,2014-01-06 13:42:00
8:44 AM,53.6,53.6,100,29.38,0.8,South,17.3,26.5,N/A,Rain,Light Rain,170,2014-01-06 13:44:00
8:45 AM,53.6,53.6,100,29.38,1.0,South,20.7,31.1,N/A,Rain,Light Rain,180,2014-01-06 13:45:00
8:46 AM,53.6,53.6,100,29.38,1.0,South,20.7,31.1,N/A,Rain,Light Rain,180,2014-01-06 13:46:00
8:47 AM,53.6,53.6,100,29.39,1.2,South,18.4,31.1,N/A,Rain,Light Rain,180,2014-01-06 13:47:00
8:48 AM,53.6,53.6,100,29.39,1.5,South,17.3,31.1,N/A,Rain,Light Rain,180,2014-01-06 13:48:00
8:52 AM,53.6,53.6,100,29.39,1.2,South,19.6,31.1,N/A,Rain,Light Rain,180,2014-01-06 13:52:00
8:55 AM,53.6,53.6,100,29.39,1.0,South,23.0,31.1,N/A,Rain,Rain,180,2014-01-06 13:55:00
8:56 AM,53.6,53.6,100,29.39,1.0,South,23.0,28.8,N/A,Rain,Rain,180,2014-01-06 13:56:00
8:57 AM,53.6,53.6,100,29.39,0.8,South,20.7,28.8,N/A,Rain,Rain,180,2014-01-06 13:57:00
8:58 AM,53.6,53.6,100,29.42,0.5,South,20.7,28.8,0.09,Fog-Rain,Rain,180,2014-01-06 13:58:00
8:59 AM,53.6,53.6,100,29.38,0.5,South,21.9,28.8,N/A,Fog-Rain,Rain,170,2014-01-06 13:59:00
9:09 AM,53.6,53.6,100,29.38,0.5,South,20.7,27.6,N/A,Fog-Rain,Rain,180,2014-01-06 14:09:00
9:12 AM,53.6,53.6,100,29.38,5.0,South,18.4,27.6,N/A,Fog-Rain,Rain,180,2014-01-06 14:12:00
9:58 AM,54.5,54.5,100,29.37,6.0,South,19.6,25.3,0.15,Fog-Rain,Light Rain,180,2014-01-06 14:58:00
10:58 AM,52.5,52.5,100,29.40,3.0,WSW,25.3,44.9,0.08,Rain,Light Rain,240,2014-01-06 15:58:00
11:18 AM,46.4,46.4,100,29.37,2.0,WSW,13.8,-,N/A,Rain,Rain,240,2014-01-06 16:18:00
11:37 AM,46.4,46.4,100,29.36,7.0,SW,11.5,-,N/A,Rain,Light Rain,230,2014-01-06 16:37:00
11:58 AM,45.5,45.5,100,29.37,10.0,SSE,8.1,-,0.14,Rain,Light Rain,160,2014-01-06 16:58:00
12:58 PM,44.8,44.8,100,29.34,10.0,SSW,10.4,-,0.00,,Overcast,200,2014-01-06 17:58:00
1:09 PM,44.6,44.6,100,29.33,7.0,South,9.2,-,N/A,Rain,Light Rain,190,2014-01-06 18:09:00
1:58 PM,42.4,42.3,99,29.38,2.5,SSW,18.4,-,0.11,Rain,Light Rain,200,2014-01-06 18:58:00
2:22 PM,37.4,37.4,100,29.41,3.0,WNW,18.4,-,N/A,Rain-Snow,Light Rain,290,2014-01-06 19:22:00
2:51 PM,35.6,33.8,93,29.41,1.5,WNW,10.4,-,N/A,Snow,Light Snow,300,2014-01-06 19:51:00
2:58 PM,34.2,33.8,99,29.44,1.5,WNW,9.2,-,0.09,Snow,Light Snow,300,2014-01-06 19:58:00
3:03 PM,33.8,32.0,93,29.43,2.5,West,9.2,-,N/A,Snow,Light Snow,280,2014-01-06 20:03:00
3:28 PM,33.8,32.0,93,29.40,4.0,North,3.5,-,N/A,Rain-Snow,Light Rain,360,2014-01-06 20:28:00
3:43 PM,33.8,33.8,100,29.40,7.0,NNW,3.5,-,N/A,,Mostly Cloudy,340,2014-01-06 20:43:00
3:51 PM,33.8,32.0,93,29.42,10.0,NW,4.6,-,N/A,Rain,Light Rain,320,2014-01-06 20:51:00
3:54 PM,33.8,33.8,100,29.43,10.0,NW,3.5,-,N/A,,Overcast,320,2014-01-06 20:54:00
3:58 PM,34.3,33.8,98,29.45,10.0,NNW,4.6,-,0.01,,Overcast,330,2014-01-06 20:58:00
4:58 PM,33.4,25.3,72,29.47,10.0,NW,13.8,24.2,N/A,,Overcast,310,2014-01-06 21:58:00
5:58 PM,31.6,20.1,62,29.49,10.0,NW,20.7,26.5,N/A,,Overcast,320,2014-01-06 22:58:00
6:58 PM,29.7,18.1,62,29.52,10.0,WNW,19.6,26.5,N/A,,Scattered Clouds,300,2014-01-06 23:58:00
7:58 PM,28.6,16.7,61,29.54,10.0,WNW,20.7,-,N/A,,Clear,290,2014-01-07 00:58:00
8:58 PM,27.5,16.0,62,29.57,10.0,WNW,16.1,-,N/A,,Clear,290,2014-01-07 01:58:00
9:58 PM,26.2,14.7,62,29.57,10.0,NW,15.0,18.4,N/A,,Clear,310,2014-01-07 02:58:00
10:58 PM,25.2,14.9,65,29.55,10.0,WNW,6.9,-,N/A,,Scattered Clouds,300,2014-01-07 03:58:00
11:58 PM,23.9,16.0,72,29.57,10.0,WNW,5.8,-,N/A,,Mostly Cloudy,290,2014-01-07 04:58:00